This is the latest recevied weather packets stored in our database for station/object KB1PVH-13. If no packets are shown the sender has not sent any weather packets the latest 10 day(s).
| Time | Temp. | Humidity | Pressure | Rain* | Wind** | Luminosity | Snow |
|---|---|---|---|---|---|---|---|
| 1777676717 | 14.44° C | 36% | 925.6 hPa | 0 mm | - | - | - |
| 1777674917 | 16.11° C | 31% | 925.5 hPa | 0 mm | - | - | - |
| 1777668917 | 18.89° C | 27% | 925 hPa | 0 mm | - | - | - |
| 1777664137 | 17.78° C | 31% | 925.1 hPa | 0 mm | - | - | - |
| 1777663518 | 18.33° C | 33% | 925 hPa | 0 mm | - | - | - |
| 1777658737 | 17.22° C | 38% | 925.6 hPa | 0 mm | - | - | - |
| 1777652716 | 15° C | 43% | 926 hPa | 0 mm | - | - | - |
| 1777652116 | 14.44° C | 44% | 926.3 hPa | 0 mm | - | - | - |
| 1777651018 | 13.89° C | 48% | 926.4 hPa | 0 mm | - | - | - |
| 1777645817 | 11.67° C | 57% | 926.8 hPa | 0 mm | - | - | - |
| 1777645216 | 11.67° C | 57% | 926.9 hPa | 0 mm | - | - | - |
| 1777644016 | 12.22° C | 57% | 926.7 hPa | 0 mm | - | - | - |
| 1777643416 | 11.11° C | 58% | 926.7 hPa | 0 mm | - | - | - |
| 1777639816 | 11.67° C | 55% | 926.5 hPa | 0 mm | - | - | - |
| 1777633816 | 6.11° C | 91% | 926.1 hPa | 0 mm | - | - | - |
| 1777631416 | 4.44° C | 93% | 925.7 hPa | 0 mm | - | - | - |
| 1777628417 | 5° C | 90% | 925.2 hPa | 0 mm | - | - | - |
| 1777622436 | 8.33° C | 85% | 924.8 hPa | 0 mm | - | - | - |
| 1777621816 | 8.33° C | 84% | 924.6 hPa | 0 mm | - | - | - |
| 1777620637 | 8.33° C | 83% | 924.3 hPa | 0 mm | - | - | - |
| 1777618816 | 8.89° C | 83% | 924.2 hPa | 0 mm | - | - | - |
| 1777617615 | 8.89° C | 82% | 924.1 hPa | 0 mm | - | - | - |
| 1777608017 | 8.33° C | 93% | 923.2 hPa | 0 mm | - | - | - |
| 1777607438 | 8.33° C | 93% | 923.3 hPa | 0 mm | - | - | - |
| 1777606218 | 8.89° C | 92% | 923.3 hPa | 0 mm | - | - | - |
* Rain latest hour (hover to see other rain measurements)
** Current wind speed in m/s (hover to see current wind gust speed)